Temp
63 63 63 63 63 64 64 64 64 64 64 64 64 64 64 64 65 67 67 75 73 71 70 72 70 69 67 64 65 62 50 46 53 54 56 59 58 60 61 58 59 64 59 59 59
62 62 63 63 63 63 63 64 63 63 63 64 64 64 64 64 66 67 75 72 72 71 73 70 67 68 60 62 62 55 47 53 59 58 57 60 60 60 56 56 57 58 56 58 59
62 62 62 62 62 63 63 63 63 63 63 63 63 63 63 62 64 69 72 72 72 71 72 71 70 68 59 61 60 57 52 59 62 62 60 60 57 62 58 55 59 60 59 56 55
61 61 61 61 62 62 62 62 62 62 63 63 63 63 61 64 56 68 71 72 71 72 70 69 66 61 57 57 64 55 62 62 63 63 60 57 61 60 59 64 65 63 63 57 54
60 60 60 60 61 61 62 62 62 62 62 62 63 62 63 59 65 69 68 69 70 71 69 67 63 61 56 58 60 57 58 62 63 62 61 60 58 57 57 61 64 65 62 58 57
61 60 60 60 60 61 61 62 62 62 62 62 62 61 60 56 70 70 69 68 70 68 67 67 65 65 60 59 56 57 58 58 60 61 60 58 54 57 59 61 61 63 61 57 59
61 59 59 59 60 60 61 61 62 61 61 62 63 64 60 64 71 69 70 67 67 67 65 66 64 62 59 57 59 58 55 56 60 58 57 57 53 53 64 59 61 60 60 60 58
61 59 59 59 60 60 61 61 61 61 61 62 63 60 60 68 66 69 68 65 66 67 65 64 65 62 58 59 58 50 48 45 56 56 56 58 49 58 61 56 57 60 57 58 58
60 59 59 59 59 60 60 61 60 61 62 63 57 57 59 67 65 68 68 65 65 63 62 70 63 57 54 49 45 45 42 44 51 58 53 52 49 56 60 56 58 55 55 59 62
60 60 60 60 60 60 60 61 61 61 62 65 68 56 62 62 64 66 65 66 62 61 60 58 54 50 47 45 41 41 41 47 47 51 50 47 50 57 57 55 56 56 56 56 60
60 60 60 60 60 61 58 54 58 56 56 59 58 59 62 61 64 61 64 63 61 57 51 53 46 44 53 51 51 49 46 45 54 58 53 54 52 57 60 55 55 57 60 63 64
60 60 60 60 60 60 55 54 50 50 47 58 61 62 65 63 59 59 65 57 55 49 51 47 44 55 55 53 51 49 47 47 55 56 51 51 52 57 54 57 60 60 60 62 64
60 59 59 59 60 57 54 51 57 54 44 54 60 61 61 62 58 58 61 57 52 48 49 50 52 56 54 51 49 51 47 49 48 52 48 45 43 49 53 55 59 62 61 63 63
59 59 59 59 56 54 51 56 56 52 39 49 55 56 57 58 53 57 59 57 52 50 48 48 56 55 49 49 52 49 52 52 48 41 40 43 38 45 50 51 53 58 59 60 54
59 59 59 60 52 52 55 56 54 51 29 51 52 59 54 54 51 51 54 52 47 48 49 49 48 46 48 52 52 50 48 46 42 38 35 39 35 42 50 48 54 60 60 61 57
58 58 59 57 52 55 56 54 52 42 29 48 50 48 48 48 48 50 50 53 50 46 48 47 48 50 50 47 50 48 43 42 39 36 32 38 40 44 44 50 52 58 59 62 61
58 57 57 62 55 57 57 54 42 31 50 47 48 47 46 45 46 46 43 41 41 37 37 43 47 47 50 44 44 43 39 29 27 24 32 43 36 49 50 53 56 59 59 61 54
57 57 56 59 58 57 53 44 31 44 48 52 51 46 46 48 47 44 41 38 42 43 39 38 42 45 48 50 44 39 41 29 23 31 39 36 31 42 54 57 57 58 62 55 51
56 55 54 56 55 55 46 34 39 43 51 51 53 46 42 46 48 43 39 39 45 48 41 38 42 44 44 45 49 40 37 45 32 17 24 40 43 49 51 53 53 55 49 52 50
54 53 52 57 56 50 41 41 43 51 53 53 45 46 40 46 45 44 41 45 47 48 56 49 40 47 42 43 43 41 44 33 31 22 18 38 34 45 51 57 59 50 50 50 49
52 49 52 55 54 44 36 39 45 51 52 48 46 45 46 42 46 45 42 48 51 52 50 47 45 44 41 38 39 38 37 40 39 31 33 32 40 48 47 51 52 49 50 50 51
50 43 51 55 42 41 40 42 48 48 51 50 49 48 45 45 44 45 44 47 54 51 42 43 40 32 41 45 45 44 43 44 37 33 30 36 40 60 52 52 51 52 52 48 51
44 44 50 50 39 40 40 42 46 46 46 47 46 48 50 44 39 43 43 51 54 49 41 42 34 28 33 43 39 41 42 45 44 37 33 29 34 57 57 58 59 51 51 53 55
41 37 43 44 45 43 42 41 40 46 45 46 46 47 44 41 44 42 42 47 48 49 47 45 33 32 31 40 44 37 38 41 43 35 37 36 39 48 52 54 58 59 61 61 58
39 35 40 34 39 41 42 42 41 41 46 48 43 43 42 38 40 41 44 44 47 46 43 41 31 33 36 39 41 39 39 39 37 39 34 38 40 46 51 53 56 59 60 59 52
34 34 38 36 39 39 40 39 39 41 40 40 38 41 41 36 38 36 40 41 41 39 42 42 34 35 32 35 34 32 37 38 38 39 39 41 42 53 56 57 56 57 58 56 57
39 42 37 33 31 33 35 39 39 40 39 41 36 34 33 37 41 39 39 39 39 38 38 38 33 33 30 34 33 28 34 37 38 42 41 35 44 53 52 53 54 56 57 56 57
MSLP
1020.37 1020.17 1019.88 1019.60 1019.31 1018.97 1018.63 1018.32 1018.00 1017.76 1017.50 1017.17 1016.83 1016.58 1016.27 1015.99 1015.80 1015.87 1015.11 1013.77 1013.86 1014.19 1014.52 1014.70 1014.86 1014.83 1014.92 1015.21 1015.13 1015.39 1016.09 1015.61 1014.41 1013.25 1012.62 1012.33 1012.49 1012.63 1012.83 1013.21 1013.52 1013.71 1014.09 1014.32 1014.86
1020.50 1020.37 1020.10 1019.88 1019.55 1019.20 1018.84 1018.49 1018.15 1017.77 1017.42 1017.08 1016.72 1016.38 1016.17 1015.90 1015.69 1015.08 1013.62 1013.31 1013.59 1013.84 1014.20 1014.50 1014.65 1014.78 1015.08 1015.03 1015.17 1015.59 1015.98 1014.84 1013.46 1012.96 1012.59 1012.46 1012.56 1012.77 1013.15 1013.24 1013.47 1013.77 1014.21 1014.65 1015.25
1020.64 1020.43 1020.24 1019.94 1019.72 1019.31 1018.94 1018.56 1018.17 1017.80 1017.35 1017.02 1016.70 1016.32 1015.99 1015.88 1015.58 1014.01 1013.65 1013.65 1013.58 1013.77 1013.91 1014.00 1014.10 1014.52 1014.91 1014.76 1014.90 1015.03 1014.97 1014.00 1013.15 1012.74 1012.58 1012.54 1012.69 1012.69 1013.03 1013.15 1012.94 1013.06 1013.68 1014.63 1015.20
1020.71 1020.48 1020.29 1020.04 1019.70 1019.37 1018.91 1018.50 1018.14 1017.74 1017.38 1016.96 1016.58 1016.24 1015.94 1015.74 1015.16 1013.62 1013.59 1013.65 1013.71 1013.79 1013.91 1013.85 1014.07 1014.38 1014.61 1014.53 1014.11 1014.52 1013.91 1013.73 1013.22 1012.72 1012.66 1012.86 1012.84 1012.65 1012.69 1011.65 1011.79 1011.95 1012.57 1013.90 1014.53
1020.55 1020.43 1020.16 1019.93 1019.65 1019.31 1018.90 1018.44 1017.96 1017.57 1017.20 1016.88 1016.60 1016.17 1015.88 1015.60 1014.19 1013.46 1013.55 1013.69 1013.76 1013.82 1013.83 1013.92 1014.17 1014.26 1014.38 1014.09 1014.03 1014.02 1013.73 1013.49 1013.16 1013.03 1012.78 1012.79 1013.03 1013.31 1012.12 1011.65 1011.80 1011.96 1012.47 1013.03 1013.62
1020.29 1020.20 1020.08 1019.75 1019.40 1019.08 1018.72 1018.24 1017.69 1017.28 1016.91 1016.64 1016.44 1016.42 1016.00 1015.06 1012.95 1013.14 1013.46 1013.67 1013.63 1013.77 1013.74 1013.78 1013.76 1013.86 1014.06 1013.92 1014.09 1013.80 1013.68 1013.42 1013.04 1012.73 1012.85 1013.16 1013.08 1013.44 1010.68 1010.85 1011.32 1011.59 1011.59 1011.96 1012.26
1020.16 1020.02 1019.82 1019.59 1019.17 1018.66 1018.17 1017.69 1017.21 1016.73 1016.44 1016.23 1016.21 1016.09 1015.60 1013.60 1012.65 1012.98 1013.30 1013.44 1013.46 1013.51 1013.71 1013.63 1013.71 1013.87 1013.99 1013.92 1013.77 1013.81 1014.00 1013.43 1012.30 1011.92 1012.82 1013.09 1013.21 1012.34 1010.01 1010.87 1010.95 1010.94 1010.86 1010.98 1011.12
1020.08 1019.88 1019.58 1019.30 1018.94 1018.44 1017.79 1017.00 1016.48 1016.05 1015.96 1015.70 1015.83 1015.79 1014.44 1012.88 1012.80 1013.02 1013.26 1013.45 1013.38 1013.57 1013.72 1013.72 1013.69 1014.06 1014.19 1014.05 1014.12 1014.39 1014.41 1013.77 1011.57 1011.91 1012.32 1012.67 1011.68 1010.03 1009.95 1010.65 1010.52 1010.24 1010.27 1010.31 1009.98
1019.92 1019.70 1019.38 1019.03 1018.57 1018.07 1017.34 1016.31 1015.77 1015.48 1015.34 1015.50 1015.81 1015.48 1014.10 1012.95 1012.99 1012.59 1012.75 1013.19 1013.49 1013.67 1013.74 1013.82 1013.99 1014.31 1014.49 1014.85 1015.29 1014.84 1014.33 1013.64 1012.08 1011.44 1012.18 1012.75 1011.39 1009.88 1009.47 1010.00 1009.82 1009.57 1009.58 1009.53 1009.06
1019.60 1019.50 1019.19 1018.76 1018.34 1017.74 1016.81 1015.46 1014.97 1015.19 1015.23 1015.25 1015.10 1015.52 1013.51 1012.57 1012.43 1012.51 1012.72 1012.96 1013.35 1013.78 1014.17 1014.26 1014.43 1014.58 1014.88 1014.99 1014.98 1014.14 1014.25 1013.15 1012.35 1011.96 1012.03 1012.24 1011.00 1009.59 1009.33 1009.62 1009.43 1009.03 1008.76 1008.40 1008.02
1019.33 1019.29 1019.03 1018.64 1018.18 1017.60 1016.88 1015.66 1015.43 1015.77 1015.23 1014.25 1014.06 1013.44 1012.79 1013.08 1012.81 1012.92 1012.80 1013.13 1013.42 1013.93 1014.27 1014.21 1014.64 1014.31 1012.87 1013.43 1013.10 1013.31 1013.16 1012.90 1011.34 1011.19 1011.62 1011.00 1010.46 1009.29 1008.77 1009.05 1008.87 1008.32 1007.67 1006.95 1006.35
1019.11 1019.05 1018.84 1018.49 1018.15 1017.50 1017.29 1017.38 1017.80 1018.13 1016.28 1013.97 1013.24 1012.79 1012.23 1012.23 1012.69 1013.00 1013.09 1013.68 1013.90 1013.78 1013.94 1014.27 1013.58 1012.48 1012.67 1013.07 1013.24 1013.14 1012.76 1012.08 1010.87 1010.37 1010.92 1010.41 1009.38 1008.71 1008.35 1007.54 1007.13 1007.01 1006.56 1005.78 1005.49
1018.79 1018.86 1018.69 1018.39 1018.05 1017.61 1017.68 1018.19 1018.09 1017.87 1017.35 1013.89 1011.91 1011.39 1011.15 1011.49 1011.66 1012.02 1012.63 1013.01 1013.34 1013.75 1013.43 1012.54 1011.83 1012.13 1012.56 1012.73 1013.15 1012.09 1012.37 1011.34 1010.99 1010.76 1010.29 1009.89 1008.34 1007.92 1006.89 1006.32 1005.99 1005.35 1004.92 1004.65 1004.58
1018.46 1018.55 1018.52 1018.17 1018.32 1018.03 1017.97 1018.01 1017.83 1017.92 1017.06 1013.48 1011.72 1011.29 1011.29 1011.36 1012.04 1012.27 1012.20 1012.55 1013.08 1012.68 1013.33 1012.40 1011.41 1011.81 1012.22 1012.20 1012.10 1010.51 1011.00 1011.01 1011.41 1011.84 1011.15 1010.32 1006.93 1006.47 1005.98 1005.71 1005.06 1004.42 1003.75 1003.35 1003.60
1018.10 1018.11 1018.13 1018.25 1018.47 1018.37 1017.98 1017.86 1017.90 1017.27 1016.09 1012.59 1011.96 1011.86 1011.85 1011.97 1012.45 1012.91 1013.02 1012.65 1012.35 1012.44 1012.69 1010.83 1010.79 1010.95 1011.40 1010.77 1011.56 1009.93 1010.49 1011.04 1011.45 1011.86 1011.50 1010.40 1010.02 1005.58 1005.14 1005.00 1004.23 1003.35 1002.75 1002.39 1002.39
1017.43 1017.68 1018.06 1018.17 1018.69 1017.71 1017.25 1017.76 1017.99 1017.15 1015.06 1012.28 1011.79 1011.88 1012.41 1012.61 1012.94 1013.37 1013.68 1013.28 1013.21 1012.68 1012.38 1011.19 1010.85 1010.72 1010.55 1010.92 1010.94 1011.11 1011.38 1011.53 1011.91 1012.40 1010.77 1010.59 1009.49 1003.21 1004.27 1003.38 1002.78 1002.10 1001.86 1001.68 1001.59
1016.75 1016.94 1017.59 1017.02 1017.83 1017.79 1017.22 1017.81 1018.35 1015.73 1012.83 1011.87 1011.64 1011.92 1012.01 1012.92 1013.13 1013.09 1013.97 1014.00 1013.54 1013.46 1012.29 1011.15 1010.21 1009.93 1010.13 1011.15 1011.75 1011.82 1012.36 1012.99 1012.90 1012.90 1009.25 1007.94 1007.49 1003.16 1003.09 1002.23 1001.66 1001.29 1000.81 1000.48 1001.28
1016.51 1016.40 1016.57 1016.77 1017.32 1017.35 1017.94 1018.55 1017.57 1013.91 1012.77 1010.99 1010.71 1011.90 1011.85 1011.87 1012.11 1012.75 1013.07 1013.54 1013.11 1013.26 1012.30 1011.79 1009.72 1009.95 1009.35 1009.50 1009.46 1010.97 1012.11 1013.08 1012.47 1010.93 1008.45 1007.61 1004.66 1002.54 1001.37 1000.83 1000.37 1000.00 999.75 1000.24 1001.25
1016.37 1016.35 1016.23 1016.16 1017.03 1017.34 1018.29 1017.86 1014.53 1013.23 1012.17 1011.39 1010.96 1011.51 1011.73 1011.30 1011.52 1011.99 1012.19 1011.92 1011.58 1011.67 1011.56 1010.52 1008.92 1008.73 1008.79 1009.19 1008.82 1010.12 1011.20 1010.33 1011.20 1010.84 1009.75 1005.36 1002.89 1001.38 1000.96 1000.56 1000.20 999.80 1000.03 1000.74 1001.08
1016.47 1016.26 1015.65 1015.73 1015.99 1017.45 1017.88 1015.42 1013.72 1012.27 1012.07 1011.97 1011.83 1012.31 1011.59 1011.47 1011.93 1012.57 1011.86 1010.47 1009.98 1009.79 1009.25 1008.92 1008.82 1008.06 1008.75 1009.48 1009.33 1008.95 1009.15 1010.51 1010.78 1010.63 1008.74 1004.68 1002.99 1000.83 1001.27 1000.26 999.51 1000.01 1000.05 1000.56 1001.15
1016.39 1016.05 1015.10 1015.31 1015.83 1016.71 1016.15 1014.29 1012.90 1011.71 1012.04 1012.04 1011.56 1011.48 1010.97 1011.40 1011.54 1011.51 1011.70 1010.36 1009.90 1009.30 1009.81 1009.82 1009.12 1007.74 1009.16 1008.89 1008.78 1009.37 1009.21 1009.37 1009.23 1008.79 1006.94 1005.23 1001.76 1000.15 1000.29 1000.24 1000.12 999.91 1000.05 1000.50 1001.24
1015.97 1015.96 1015.34 1014.91 1016.04 1015.48 1014.05 1013.43 1012.62 1011.67 1012.06 1011.54 1011.27 1011.29 1010.81 1010.85 1010.62 1010.53 1009.54 1009.52 1008.55 1009.12 1010.08 1011.43 1010.91 1009.65 1008.80 1008.06 1007.74 1007.72 1007.66 1008.26 1008.20 1007.46 1006.73 1005.06 1002.39 999.94 1000.38 1000.40 1000.46 999.30 1000.15 1000.35 1000.80
1016.36 1015.18 1015.16 1014.59 1014.64 1014.19 1013.50 1013.05 1012.79 1011.66 1011.70 1011.19 1010.88 1010.98 1011.15 1010.79 1010.46 1009.60 1009.27 1008.29 1008.79 1009.26 1010.03 1011.36 1010.99 1010.83 1009.43 1008.39 1007.71 1007.21 1006.56 1006.99 1007.01 1007.11 1006.42 1005.70 1003.28 999.73 1000.36 999.96 999.27 999.76 1000.19 1000.14 1000.03
1016.72 1015.55 1015.15 1014.54 1013.49 1013.40 1013.28 1012.39 1011.96 1011.76 1011.01 1011.34 1010.98 1011.36 1011.37 1011.29 1010.75 1009.14 1008.89 1008.22 1007.91 1008.61 1009.16 1010.42 1010.06 1009.63 1008.45 1006.95 1006.57 1007.09 1006.56 1006.20 1006.35 1006.27 1005.04 1004.06 1001.71 1000.98 998.73 997.91 997.66 998.35 997.84 998.36 998.67
1017.20 1015.46 1014.43 1014.04 1013.15 1013.23 1013.04 1012.39 1011.74 1011.41 1011.07 1011.00 1010.42 1010.66 1010.93 1010.53 1010.37 1009.41 1008.96 1008.41 1008.02 1008.06 1008.79 1009.65 1008.99 1008.84 1007.42 1006.65 1006.96 1006.68 1006.22 1005.69 1005.68 1004.63 1004.52 1002.97 1002.04 1000.40 997.91 996.92 996.87 996.90 996.70 997.16 997.87
1017.01 1016.32 1015.53 1014.52 1013.87 1013.76 1012.94 1012.23 1012.32 1011.91 1012.47 1011.67 1011.75 1011.71 1011.31 1010.62 1010.50 1009.99 1009.84 1009.03 1007.73 1007.19 1007.58 1007.86 1007.00 1007.26 1006.11 1006.06 1005.10 1004.81 1004.72 1004.30 1003.74 1002.33 1001.53 1001.43 1000.12 998.02 997.13 996.51 996.06 995.20 995.54 997.09 997.24
1016.79 1016.67 1016.76 1015.27 1014.83 1014.68 1013.39 1012.95 1012.82 1012.87 1012.76 1012.58 1012.85 1012.90 1012.34 1011.62 1011.49 1011.47 1011.20 1010.35 1009.54 1008.61 1007.71 1007.53 1006.20 1005.30 1003.37 1004.45 1003.90 1003.19 1003.15 1001.67 1001.65 1001.45 1000.38 999.68 997.56 996.99 996.32 996.18 995.34 995.19 995.34 995.97 995.82
Wind_Speed
16 17 17 17 17 17 17 17 16 14 13 13 13 11 9 7 7 2 5 7 7 12 7 4 2 3 1 2 1 3 3 4 5 3 1 2 3 2 3 2 3 6 4 3 10
16 17 17 17 17 17 17 17 17 16 16 15 14 13 11 7 2 7 5 12 13 10 5 6 3 4 1 3 2 4 3 7 4 3 3 3 5 7 2 3 5 4 2 6 11
14 15 17 18 18 18 18 18 17 16 16 16 15 14 10 5 2 5 3 7 10 7 3 3 2 5 3 3 4 5 7 5 4 2 2 3 2 4 7 7 9 12 9 11 10
11 13 14 16 17 18 18 18 18 17 17 16 15 14 11 1 5 3 6 7 8 5 2 3 2 4 4 5 7 4 8 7 7 3 1 3 4 5 8 15 7 12 8 13 12
8 10 12 14 16 17 18 19 19 17 17 17 15 11 2 0 10 6 6 6 5 5 5 4 4 4 4 3 2 5 5 7 7 8 6 2 9 8 12 10 11 10 7 17 16
8 8 10 13 15 17 18 18 19 18 18 17 14 8 2 5 3 9 7 5 4 4 4 5 6 6 5 5 4 3 5 7 7 11 6 7 6 5 10 8 14 12 13 12 19
8 8 9 12 16 17 18 20 20 18 17 16 11 4 2 13 6 8 8 3 2 3 3 3 2 3 1 4 3 3 8 9 13 9 8 6 10 16 25 5 9 12 13 12 17
7 8 9 11 15 17 19 21 22 20 17 11 5 3 8 2 4 6 4 2 2 1 2 1 3 3 3 2 6 2 2 5 6 8 4 10 17 11 12 9 16 18 12 10 13
8 9 10 12 15 17 20 23 22 18 5 1 2 3 9 1 3 6 7 6 5 3 2 2 4 5 1 4 5 4 6 8 12 8 7 6 13 11 9 9 15 11 11 14 16
8 9 11 13 16 18 22 25 8 5 1 3 3 2 4 6 4 4 2 9 3 5 3 3 3 3 1 6 10 8 7 7 10 4 4 6 19 16 11 6 11 10 10 12 16
9 9 10 13 15 18 13 7 6 3 1 9 6 5 2 2 3 2 2 4 4 2 8 6 5 11 23 16 7 5 6 9 20 10 10 17 18 21 20 10 13 16 18 20 19
9 9 10 13 16 20 5 4 3 1 9 8 13 10 5 7 4 5 6 7 6 9 5 2 12 20 4 10 11 12 15 16 16 12 11 14 21 18 11 15 16 17 19 22 17
9 9 9 11 14 6 2 3 3 3 3 9 10 8 7 11 10 9 14 5 7 6 10 19 11 17 12 9 8 20 15 19 19 10 7 8 11 13 12 10 14 17 19 21 18
9 9 7 12 2 5 2 4 2 2 4 8 5 2 3 4 4 2 4 7 5 13 8 12 11 11 6 7 13 23 10 15 10 3 13 5 16 8 7 13 10 16 18 15 12
10 8 3 2 3 3 3 4 4 3 8 5 2 3 1 7 3 3 2 2 5 4 7 12 3 8 14 24 9 18 3 4 1 4 5 6 7 3 8 8 11 16 18 18 12
11 9 7 2 2 4 2 4 2 6 11 5 3 3 3 2 2 3 3 3 1 2 7 11 1 4 7 2 6 2 1 1 2 3 14 9 10 7 7 10 7 11 12 15 12
13 11 10 4 3 2 3 3 3 7 5 4 5 4 2 5 4 6 4 5 6 1 5 3 13 4 6 3 2 3 5 5 5 1 16 13 12 19 5 7 12 13 13 15 7
11 10 7 6 6 5 4 4 7 6 9 1 4 2 7 8 7 7 5 4 7 2 2 4 15 12 9 16 13 9 10 8 8 10 20 4 10 8 11 12 11 13 15 5 8
8 1 2 6 6 5 4 3 9 7 7 6 10 10 4 5 7 7 9 7 10 19 12 7 14 2 4 2 9 6 7 9 2 2 3 9 13 7 7 10 11 14 3 8 9
2 3 4 9 12 5 2 13 9 6 3 3 11 8 13 12 1 1 5 4 7 16 18 7 9 9 4 1 3 5 2 2 1 3 8 18 6 14 16 22 19 7 9 8 6
2 4 1 14 7 3 8 10 8 6 5 8 14 18 17 14 8 7 5 17 4 6 6 6 8 16 5 8 10 1 4 5 2 5 14 15 17 6 2 6 7 7 6 8 9
2 5 5 11 4 4 10 6 7 11 7 10 4 9 10 9 12 15 18 20 8 4 2 2 4 4 12 7 6 5 7 9 10 11 5 8 16 19 7 5 7 5 4 1 5
3 3 4 3 8 10 4 5 5 11 9 5 8 10 11 12 10 12 11 12 17 10 8 4 3 4 8 13 3 7 7 8 6 2 11 14 15 26 24 26 22 9 10 10 12
3 3 3 3 4 11 15 14 14 9 15 14 13 11 14 17 18 12 15 13 12 13 16 10 10 13 18 17 8 8 7 9 15 12 22 21 31 27 33 31 26 21 26 21 14
3 5 3 5 11 14 15 13 22 17 12 9 7 21 23 20 25 29 26 27 20 10 11 13 11 19 26 27 30 29 26 26 21 22 20 27 25 24 32 29 26 25 23 19 8
2 2 5 5 7 6 11 15 20 22 12 19 18 23 17 16 21 24 22 18 19 4 20 12 18 18 23 28 32 35 32 33 35 34 27 33 32 34 30 31 31 36 29 19 18
3 2 1 5 1 2 10 14 10 8 4 3 11 13 12 14 14 18 19 20 20 15 11 11 7 12 25 20 24 25 34 38 29 25 24 30 36 36 35 31 32 31 28 19 21
Wind_Direction
22 17 13 9 5 3 360 358 358 358 356 351 349 343 334 322 300 200 235 214 162 158 163 148 202 222 311 257 187 61 50 260 262 298 252 196 152 317 143 159 206 208 186 226 133
19 13 10 5 0 356 353 351 348 347 346 346 344 344 338 329 228 239 262 132 142 155 140 166 190 183 292 232 186 118 151 235 222 287 284 202 181 182 179 239 238 225 19 122 141
13 9 2 1 355 351 348 344 340 338 339 340 339 336 333 324 325 247 133 152 150 156 155 190 206 166 202 170 209 200 211 220 278 284 32 282 255 201 183 236 210 213 195 175 167
3 4 359 354 351 345 342 338 334 331 329 330 332 330 330 242 283 172 158 160 161 162 183 175 190 155 227 224 211 225 244 247 275 236 184 250 294 265 205 237 208 224 192 178 185
344 350 353 349 345 340 336 332 327 323 320 321 325 323 307 221 246 159 155 171 154 154 184 180 170 195 232 248 312 231 258 264 268 272 230 217 249 247 261 264 254 255 185 187 202
329 341 341 340 338 334 329 324 320 315 312 312 315 314 194 232 134 150 155 158 188 179 206 177 197 188 251 242 205 247 256 264 259 254 232 199 259 155 257 230 247 239 246 205 203
325 338 334 331 331 326 321 316 311 304 302 304 300 249 234 237 156 154 154 197 172 164 205 209 156 171 297 292 304 290 316 309 260 244 222 123 282 224 248 253 258 249 239 224 217
317 322 325 320 316 313 311 307 305 302 299 293 253 223 242 107 135 140 141 108 108 92 109 93 107 200 206 290 339 246 206 288 272 129 211 126 260 247 248 193 238 242 244 240 232
305 307 311 305 307 308 307 300 299 293 269 210 167 185 262 118 192 193 155 165 137 114 74 123 128 191 66 118 342 268 239 215 296 200 138 169 257 269 259 202 246 242 238 239 251
291 299 305 305 310 313 313 302 286 347 201 185 260 4 252 224 168 154 139 145 153 128 100 151 145 175 227 125 224 212 226 243 240 197 158 194 249 261 268 266 250 267 248 241 242
280 289 301 308 316 318 337 348 13 12 282 198 190 224 122 359 18 214 195 127 113 142 187 209 145 204 228 201 226 249 251 235 268 259 203 239 237 255 256 258 248 255 261 259 252
278 281 297 312 320 320 322 38 49 257 308 268 251 236 191 172 233 219 132 163 167 209 164 247 217 222 211 204 224 247 257 262 274 270 194 249 253 252 241 244 242 238 251 257 255
271 275 290 310 319 333 351 58 326 19 247 278 222 210 213 163 220 210 155 180 193 195 204 221 218 217 224 235 262 249 248 258 255 295 232 282 265 247 245 253 252 253 247 258 256
257 265 292 311 35 324 9 322 341 58 291 267 233 236 32 139 273 337 201 176 221 224 202 247 233 219 192 209 194 262 218 258 266 255 270 132 290 218 231 239 236 246 254 251 240
247 248 239 79 273 330 284 334 313 88 299 260 223 1 21 161 121 359 350 16 209 204 142 234 218 200 225 233 193 260 181 236 246 239 317 176 285 190 195 243 247 245 249 257 242
231 216 172 154 269 236 54 351 359 54 253 274 125 156 116 331 44 38 32 21 315 317 256 246 159 214 211 169 192 110 202 197 41 83 262 186 210 158 193 211 235 246 247 249 255
233 208 168 153 227 131 71 24 314 198 294 212 234 159 146 193 223 173 167 183 182 239 242 291 225 171 146 172 288 169 76 304 321 20 259 184 223 253 275 216 213 230 239 237 179
274 222 203 184 156 123 48 76 200 207 227 258 78 117 191 163 231 188 170 239 241 244 316 251 285 157 187 199 188 183 174 172 223 256 277 154 252 254 224 231 232 222 228 223 176
325 204 182 195 157 115 118 179 223 176 245 0 343 319 255 261 221 156 202 206 206 188 200 205 263 309 192 176 150 169 183 217 344 61 7 252 275 296 257 282 271 248 165 223 203
303 240 199 163 136 120 190 235 228 196 33 353 269 197 265 261 251 265 197 214 226 189 217 234 264 193 144 141 328 168 149 110 283 205 241 273 272 270 286 278 271 239 210 206 204
234 262 195 146 117 162 219 226 249 207 198 220 243 251 244 266 247 237 237 304 321 344 244 296 243 258 122 194 182 150 248 235 211 178 242 258 270 153 103 315 290 260 225 196 212
226 239 156 155 186 237 222 219 220 241 210 250 254 254 252 274 263 252 242 222 238 126 358 309 292 291 252 289 201 168 212 213 236 259 236 271 265 277 294 335 288 111 271 291 216
244 217 203 238 221 230 208 247 275 263 222 223 224 235 239 247 257 228 240 248 257 216 161 165 203 273 291 286 232 211 196 210 241 221 241 263 265 276 278 281 274 235 258 262 270
287 241 189 221 228 237 253 234 243 231 261 244 261 262 256 257 252 263 253 248 228 243 189 173 198 200 228 237 270 262 256 254 249 252 258 245 256 263 270 261 269 271 265 268 256
251 256 229 215 231 237 245 265 262 265 232 248 224 231 247 260 257 260 248 260 256 200 163 176 229 220 231 235 252 261 253 251 249 248 245 257 257 253 257 274 272 277 271 270 245
273 317 355 318 323 288 231 241 260 267 262 272 273 284 301 288 285 286 291 259 239 226 221 205 247 226 232 226 226 238 245 248 252 248 250 254 258 256 261 265 270 269 271 286 276
275 72 276 276 282 295 260 265 284 329 275 357 348 326 307 304 316 301 287 283 284 290 292 248 251 224 248 225 232 238 234 239 247 250 240 245 245 250 259 260 259 275 283 279 268